Miscellaneous Local Product
Issued by NWS North Platte, NE

Home | Current Version | Previous Version | Text Only | Print | Product List | Glossary On
Versions: 1 2 3 4 5 6 7 8 9 10 11 12 13 14 15 16 17 18 19 20 21 22 23 24 25 26 27 28 29 30 31 32 33 34 35 36 37 38 39 40 41 42 43 44 45 46 47 48 49 50
000
AXUS43 KLBF 301010
MISLBF


WESTERN AND NORTH CENTRAL NEBRASKA HOURLY WEATHER ROUNDUP
NATIONAL WEATHER SERVICE NORTH PLATTE NE
500 AM CDT MON MAR 30 2015

***STATIONS NOT REPORTING VARIABLES SUCH AS SKY/WEATHER OR
PRESSURE ARE PROVIDED BY THE NEBRASKA DEPARTMENT OF
ROADS...RAWS...AND APRS NETWORKS...AND ARE NOT UNDER
NATIONAL WEATHER SERVICE QUALITY CONTROL***

...OBSERVATIONS IN AND NEAR THE EASTERN PANHANDLE OF NEBRASKA...

CITY           SKY/WX    TMP DP  RH WIND       PRES   REMARKS
PINE RIDGE     CLEAR     32  22  66 NW3       30.01S
CHADRON        CLEAR     32  25  75 SW9       30.01F WCI  24
ALLIANCE       CLEAR     33  21  61 S5        30.03F WCI  29
SIDNEY         CLEAR     43  23  45 SW15      30.05F
$$

...OBSERVATIONS IN NORTH CENTRAL NEBRASKA...

CITY           SKY/WX    TMP DP  RH WIND       PRES   REMARKS
VALENTINE      CLEAR     41  21  44 SW9       30.00F
THEDFORD       CLEAR     44  20  37 SW6       30.05S
AINSWORTH      CLEAR     45  17  31 SW16      30.01F
O`NEILL        CLEAR     38  23  54 SW8       30.04F WCI  32
ORD            PTCLDY    29  18  63 CALM      30.07F
BROKEN BOW     PTCLDY    44  16  32 SW9       30.07F
$$

...OBSERVATIONS IN SOUTHWEST NEBRASKA AND FAR NORTHEAST COLORADO...

CITY           SKY/WX    TMP DP  RH WIND       PRES   REMARKS
WRAY           FAIR      44  25  46 SW14      30.09F
IMPERIAL         N/A     38  20  48 S6        30.09F WCI  33
OGALLALA       CLEAR     37  20  50 SW6       30.08S WCI  32
NORTH PLATTE   CLEAR     42  18  37 S8        30.08F
MCCOOK         CLEAR     41  16  36 SW7       30.11F
LEXINGTON      CLEAR     46  14  28 SW14      30.10F
$$

...NORTH PLATTE AREA...

CITY           SKY/WX    TMP DP  RH WIND       PRES   REMARKS
AIRPORT        CLEAR     42  18  37 S8        30.08F
$$

...SOME WEATHER OBSERVATIONS FROM AROUND THE REGION...

CITY           SKY/WX    TMP DP  RH WIND       PRES   REMARKS
DENVER         CLEAR     42  25  50 SW5       30.11F
LARAMIE        PTCLDY    42  12  29 W10       30.18S
CHEYENNE       CLEAR     38  20  48 W8        30.12S WCI  32
SCOTTSBLUFF    CLEAR     33  24  69 N5        30.04F WCI  29
RAPID CITY     CLEAR     39  24  55 W8        29.98F WCI  33
PIERRE         CLEAR     40  29  64 SW6       29.94F
WINNER         FAIR      48  19  31 S15       29.97F
SIOUX FALLS    MOCLDY    33  23  66 CALM      30.01S
OMAHA          PTCLDY    34  26  72 SE8       30.12R WCI  27
GRAND ISLAND   CLOUDY    48  18  30 S10       30.10F
KANSAS CITY    CLEAR     40  31  70 S6        30.16F
WICHITA        CLEAR     38  31  76 CALM      30.19S
HAYS           CLEAR     37  16  41 SW3       30.16S
LIBERAL        CLEAR     39  27  60 S8        30.20S WCI  34
GOODLAND       CLEAR     43  23  45 S16       30.12F
$$



USA.gov is the U.S. government's official web portal to all federal, state and local government web resources and services.